Location: Newark
(48.8604°N, 2.3376°E)
Time: 16:28:30
(UTC+00:00)

XW-2C - Pass Details

Date: 15 December 2021
Orbit: 503 x 523 km, 97.5° (Epoch: 17 January)

Event Time Altitude Azimuth Distance (km) Brightness Sun altitude
Rises 17:55:36 0° 203° (SSW) 2,631 ? -18.9°
Reaches altitude 10° 17:58:12 10° 223° (SW) 1,754 ? -19.3°
Maximum altitude 18:00:53 18° 268° (W) 1,312 ? -19.7°
Drops below altitude 10° 18:03:37 10° 314° (NW) 1,771 ? -20.1°
Sets 18:06:15 0° 333° (NNW) 2,668 ? -20.6°
